Main page
METAR-TAF:

METAR-TAF

Airports :

Oil platform

Troll C, Norway

latitude: 60-53-09N, longitude: 3-36-35E, elevation: 20 m

Current weather observation

The report was made 27 minutes ago, at 21:50 UTC
Wind 43 kt from the Southeast
Temperature 5°C
Humidity 56%
Pressure 994 hPa
Visibility 10 km or more

METAR: ENQC 222150Z AUTO 14043KT 9999NDV BKN037/// 05/M03 Q0994 W///S6

Time: 23:17 (22:17 UTC)


TAF: missing

Weather observations and forecasts of more than 4000 airports (METAR and TAF reports).

The available stations are represented by yellow and red dots on the map.

Hover mouse over dot to see the name of the station.

Then click to see weather observations and forecasts.

To change the map : click on the green buttons with a black cross to zoom in, on the green button with a dash to zoom out, or on the green arrows for adjacent maps.


METAR-TAF: